Regional Weather Roundup
Issued by NWS Cleveland, OH

Home | Current Version | Previous Version | Text Only | Print | Product List | Glossary Off
Versions: 1 2 3 4 5 6 7 8 9 10 11 12 13 14 15 16 17 18 19 20 21 22 23 24 25 26 27 28 29 30 31 32 33 34 35 36 37 38 39 40 41 42 43 44 45 46 47 48 49 50

000
ASUS41 KCLE 230210
RWRCLE
OHIO REGIONAL WEATHER ROUNDUP
NATIONAL WEATHER SERVICE CLEVELAND, OH
1000 PM EDT FRI SEP 22 2017

NOTE: "FAIR" INDICATES FEW OR NO CLOUDS BELOW 12,000 FEET WITH NO
SIGNIFICANT WEATHER AND/OR OBSTRUCTIONS TO VISIBILITY.

OHZ001>008-015>018-024>027-034-035-043-044-230300-
   NORTHWEST OHIO

CITY           SKY/WX    TMP DP  RH WIND       PRES   REMARKS
DEFIANCE       CLEAR     73  68  84 E3        30.07S
FINDLAY        CLEAR     75  62  64 E7        30.07F
TOLEDO EXPRESS CLEAR     73  69  87 E3        30.07S
TOLEDO EXEC    CLEAR     72  65  78 E5        30.08S
LIMA           CLEAR     71  67  87 E5        30.08F
$$

OHZ009>014-019>023-028>033-038-089-230300-
   NORTHEAST OHIO

CITY           SKY/WX    TMP DP  RH WIND       PRES   REMARKS
CLE-HOPKINS    CLEAR     76  61  59 CALM      30.10S
CLE-LAKEFRONT  CLEAR     75  59  57 CALM      30.07S
CUY CO. ARPT   CLEAR     68  61  77 CALM      30.10S
LORAIN-ELYRIA  CLEAR     65  58  78 CALM      30.09S
ASHTABULA      CLEAR     60  59  96 CALM      30.11F
AKRON-CANTON   MOCLDY    72  55  55 E6        30.11S
WOOSTER        CLEAR     63  61  93 CALM      30.11S
MANSFIELD      CLEAR     71  63  75 NE3       30.11S
YOUNGSTOWN     PTCLDY    63  61  93 E5        30.11S
$$

OHZ042-051>053-060>062-070>072-077>081-230300-
  SOUTHWEST OHIO

CITY           SKY/WX    TMP DP  RH WIND       PRES   REMARKS
CINC-COVINGTON CLEAR     76  68  76 CALM      30.07R
CINC-LUNKEN    CLEAR     71  68  90 CALM      30.06S
HAMILTON       CLEAR     70  69  97 CALM      30.07R
DAYTON         CLEAR     76  64  66 SE5       30.09R
WRIGHT-PAT AFB CLEAR     76  66  70 CALM      30.07S
DAYTON GENERAL CLEAR     75  64  68 S3        30.07R
WILMINGTON     CLEAR     67  66  97 CALM      30.08S
$$

OHZ036-037-039>041-045>050-054>059-063>069-073>076-082>088-230300-
  CENTRAL AND SOUTHEAST OHIO

CITY           SKY/WX    TMP DP  RH WIND       PRES   REMARKS
COLUMBUS       CLOUDY    77  67  71 E5        30.07S
OSU AIRPORT    CLEAR     74  66  76 E3        30.08S
BOLTON FIELD   CLEAR     70  67  88 CALM      30.08S
RICKENBACK AFB CLEAR     73  66  78 CALM      30.06F
NEWARK         PTCLDY    68  66  93 CALM      30.08R
MARION         CLEAR     72  61  68 CALM      30.09S
LANCASTER      CLEAR     66  64  93 CALM      30.08S
ZANESVILLE     PTCLDY    71  66  84 CALM      30.08S
NEW PHILLY     NOT AVBL
$$



USA.gov is the U.S. government's official web portal to all federal, state and local government web resources and services.